Date String (YYYY-MM-DD hh:mm:ss) UTC,Instrument flags,absolute air pressure of the measurement (hPa),sample flow rate (lpm),inlet stack bypass flow (lpm),air temperature of the measurement (°C),ambient temperature measured by the external sensor (°C),aerosol sample conditioner tube jacket temperature (°C),OPC LED temperature (°C),internal box temperature (°C),relative humidity of the measurement (%),span deviation,mass concentration of particles derived from Lorenz-Mie calculation of OPC scattering (μg/m³),mass concentration of particles derived from Lorenz-Mie calculation of OPC scattering (μg/m³),mass concentration of particles derived from Lorenz-Mie calculation of OPC scattering (μg/m³)
DateTimeUTC,F1_M11,P_M11,Q1_M11,Q2_M11,T1_M11,T2_M11,T3_M11,T4_M11,T5_M11,U1_M11,ZSPAN_M11,X0_M11,X2_M11,X1_M11
2024-05-07 16:00:00,SystemResetWarning,0816.0,4.99,000.00,021.7,021.1,000.0,029.7,023.3,013.6,0000.0,0006.06,0001.67,0000.93
2024-05-07 16:01:00,SystemResetWarning,0816.0,4.99,000.00,021.7,021.1,000.0,029.7,023.3,013.7,0000.0,0005.90,0001.62,0000.93
2024-05-07 16:02:00,SystemResetWarning,0816.1,5.00,000.00,021.7,021.1,000.0,029.7,023.3,014.2,0000.0,0005.87,0001.64,0000.93
2024-05-07 16:03:00,SystemResetWarning,0816.1,5.01,000.00,021.7,021.1,000.0,029.8,023.3,014.3,0000.0,0005.36,0001.60,0000.93
2024-05-07 16:04:00,SystemResetWarning,0816.0,5.01,000.00,021.7,021.1,000.0,029.8,023.4,014.0,0000.0,0004.85,0001.57,0000.92
2024-05-07 16:05:00,SystemResetWarning,0815.9,5.01,000.00,021.7,021.1,000.0,029.8,023.4,014.3,0000.0,0003.84,0001.55,0000.93
2024-05-07 16:06:00,SystemResetWarning,0815.9,4.99,000.00,021.7,021.1,000.0,029.8,023.4,013.9,0000.0,0004.08,0001.52,0000.92
2024-05-07 16:07:00,SystemResetWarning,0815.7,4.99,000.00,021.7,021.1,000.0,029.8,023.4,013.5,0000.0,0004.68,0001.52,0000.92
2024-05-07 16:08:00,SystemResetWarning,0815.8,5.00,000.00,021.8,021.1,000.0,029.8,023.4,013.6,0000.0,0004.79,0001.51,0000.91
2024-05-07 16:09:00,SystemResetWarning,0815.8,5.00,000.00,021.8,021.1,000.0,029.8,023.4,013.6,0000.0,0005.26,0001.54,0000.92
2024-05-07 16:10:00,SystemResetWarning,0815.8,5.00,000.00,021.8,021.1,000.0,029.8,023.4,013.4,0000.0,0005.36,0001.52,0000.93
2024-05-07 16:11:00,SystemResetWarning,0815.7,5.01,000.00,021.8,021.1,000.0,029.8,023.4,013.7,0000.0,0004.70,0001.54,0000.93
2024-05-07 16:12:00,SystemResetWarning,0815.8,5.00,000.00,021.8,021.1,000.0,029.8,023.5,013.8,0000.0,0004.78,0001.59,0000.93
2024-05-07 16:13:00,SystemResetWarning,0815.7,5.00,000.00,021.8,021.1,000.0,029.8,023.4,013.5,0000.0,0005.03,0001.63,0000.95
2024-05-07 16:14:00,SystemResetWarning,0815.7,5.00,000.00,021.8,021.2,000.0,029.8,023.5,013.2,0000.0,0005.12,0001.66,0000.95
2024-05-07 16:15:00,SystemResetWarning,0815.9,5.00,000.00,021.8,021.2,000.0,029.8,023.5,013.5,0000.0,0005.30,0001.72,0000.95
2024-05-07 16:16:00,SystemResetWarning,0815.9,5.00,000.00,021.8,021.2,000.0,029.9,023.5,013.9,0000.0,0005.20,0001.68,0000.95
2024-05-07 16:17:00,SystemResetWarning,0815.8,4.99,000.00,021.8,021.2,000.0,029.9,023.5,013.9,0000.0,0004.91,0001.70,0000.95
2024-05-07 16:18:00,SystemResetWarning,0815.7,5.00,000.00,021.8,021.2,000.0,029.9,023.5,012.8,0000.0,0004.44,0001.76,0000.95
2024-05-07 16:19:00,SystemResetWarning,0815.8,4.99,000.00,021.8,021.2,000.0,029.9,023.5,012.9,0000.0,0004.49,0001.81,0000.97
2024-05-07 16:20:00,SystemResetWarning,0815.8,5.00,000.00,021.9,021.2,000.0,029.9,023.5,012.8,0000.0,0004.58,0001.79,0000.98
2024-05-07 16:21:00,SystemResetWarning,0815.7,5.00,000.00,021.9,021.2,000.0,029.9,023.5,013.2,0000.0,0004.52,0001.79,0000.98
2024-05-07 16:22:00,SystemResetWarning,0815.5,5.00,000.00,021.9,021.2,000.0,029.9,023.5,012.7,0000.0,0004.74,0001.78,0000.98
2024-05-07 16:23:00,SystemResetWarning,0815.8,5.00,000.00,021.9,021.2,000.0,029.9,023.5,012.1,0000.0,0004.59,0001.77,0000.99
2024-05-07 16:24:00,SystemResetWarning,0815.7,5.01,000.00,021.9,021.3,000.0,029.9,023.5,012.6,0000.0,0004.09,0001.71,0000.99
2024-05-07 16:25:00,SystemResetWarning,0815.7,5.00,000.00,021.9,021.3,000.0,029.9,023.5,012.5,0000.0,0004.27,0001.77,0001.00
2024-05-07 16:26:00,SystemResetWarning,0815.6,5.00,000.00,021.9,021.3,000.0,029.9,023.5,012.2,0000.0,0004.39,0001.82,0001.02
2024-05-07 16:27:00,SystemResetWarning,0815.6,5.00,000.00,021.9,021.3,000.0,030.0,023.5,012.3,0000.0,0004.57,0001.90,0001.05
2024-05-07 16:28:00,SystemResetWarning,0815.6,5.00,000.00,021.9,021.3,000.0,030.0,023.6,012.6,0000.0,0004.70,0001.95,0001.06
2024-05-07 16:29:00,SystemResetWarning,0815.7,5.00,000.00,021.9,021.3,000.0,030.0,023.6,012.1,0000.0,0004.71,0001.97,0001.08
2024-05-07 16:30:00,SystemResetWarning,0815.7,5.00,000.00,021.9,021.3,000.0,030.0,023.5,012.3,0000.0,0004.68,0001.97,0001.09
2024-05-07 16:31:00,SystemResetWarning,0815.7,5.00,000.00,021.9,021.3,000.0,030.0,023.5,012.5,0000.0,0004.21,0002.00,0001.09
2024-05-07 16:32:00,SystemResetWarning,0815.7,5.00,000.00,021.9,021.3,000.0,030.0,023.5,012.5,0000.0,0004.32,0002.06,0001.10
2024-05-07 16:33:00,SystemResetWarning,0815.8,5.00,000.00,021.9,021.3,000.0,030.0,023.6,012.7,0000.0,0004.12,0002.15,0001.12
2024-05-07 16:34:00,SystemResetWarning,0815.8,5.00,000.00,021.9,021.3,000.0,030.0,023.6,012.5,0000.0,0004.14,0002.18,0001.14
2024-05-07 16:35:00,SystemResetWarning,0815.8,5.00,000.00,021.9,021.3,000.0,030.0,023.6,012.8,0000.0,0004.32,0002.24,0001.15
2024-05-07 16:36:00,SystemResetWarning,0815.8,5.00,000.00,021.9,021.3,000.0,030.0,023.6,012.2,0000.0,0004.33,0002.24,0001.16
2024-05-07 16:37:00,SystemResetWarning,0815.8,5.01,000.00,021.9,021.3,000.0,030.0,023.6,011.9,0000.0,0004.33,0002.26,0001.17
2024-05-07 16:38:00,SystemResetWarning,0815.9,5.00,000.00,021.9,021.3,000.0,030.0,023.6,012.6,0000.0,0004.64,0002.23,0001.18
2024-05-07 16:39:00,SystemResetWarning,0815.9,5.00,000.00,021.9,021.3,000.0,030.0,023.6,012.4,0000.0,0004.73,0002.20,0001.19
2024-05-07 16:40:00,SystemResetWarning,0815.9,4.99,000.00,022.0,021.3,000.0,030.0,023.6,012.0,0000.0,0004.92,0002.26,0001.20
2024-05-07 16:41:00,SystemResetWarning,0815.8,5.00,000.00,022.0,021.3,000.0,030.0,023.6,012.1,0000.0,0005.24,0002.27,0001.20
2024-05-07 16:42:00,SystemResetWarning,0815.9,5.00,000.00,022.0,021.3,000.0,030.0,023.7,012.3,0000.0,0005.83,0002.35,0001.21
2024-05-07 16:43:00,SystemResetWarning,0815.8,4.99,000.00,022.0,021.3,000.0,030.1,023.7,012.3,0000.0,0005.81,0002.34,0001.23
2024-05-07 16:44:00,SystemResetWarning,0816.0,4.99,000.00,022.0,021.4,000.0,030.1,023.6,011.9,0000.0,0005.90,0002.33,0001.24
2024-05-07 16:45:00,SystemResetWarning,0815.9,5.00,000.00,022.0,021.4,000.0,030.1,023.7,012.0,0000.0,0006.38,0002.33,0001.24
2024-05-07 16:46:00,SystemResetWarning,0815.8,5.00,000.00,022.0,021.4,000.0,030.1,023.7,012.1,0000.0,0006.64,0002.28,0001.24
2024-05-07 16:47:00,SystemResetWarning,0815.9,5.02,000.00,022.0,021.4,000.0,030.1,023.7,011.9,0000.0,0006.54,0002.26,0001.25
2024-05-07 16:48:00,SystemResetWarning,0815.9,5.00,000.00,022.0,021.4,000.0,030.1,023.7,011.8,0000.0,0006.61,0002.25,0001.25
2024-05-07 16:49:00,SystemResetWarning,0815.9,4.99,000.00,022.0,021.4,000.0,030.1,023.7,012.0,0000.0,0006.95,0002.27,0001.25
2024-05-07 16:50:00,SystemResetWarning,0815.9,4.99,000.00,022.0,021.4,000.0,030.1,023.7,012.0,0000.0,0007.24,0002.35,0001.25
2024-05-07 16:51:00,SystemResetWarning,0815.8,5.00,000.00,022.0,021.4,000.0,030.1,023.7,011.9,0000.0,0007.64,0002.30,0001.24
2024-05-07 16:52:00,SystemResetWarning,0815.9,5.00,000.00,022.1,021.4,000.0,030.1,023.7,011.4,0000.0,0007.62,0002.32,0001.25
2024-05-07 16:53:00,SystemResetWarning,0816.0,5.00,000.00,022.1,021.5,000.0,030.1,023.7,011.7,0000.0,0007.25,0002.28,0001.26
2024-05-07 16:54:00,SystemResetWarning,0816.0,5.00,000.00,022.1,021.5,000.0,030.1,023.7,012.1,0000.0,0007.16,0002.26,0001.26
2024-05-07 16:55:00,SystemResetWarning,0816.0,5.00,000.00,022.1,021.5,000.0,030.1,023.7,012.1,0000.0,0007.20,0002.26,0001.26
2024-05-07 16:56:00,SystemResetWarning,0816.0,5.00,000.00,022.1,021.5,000.0,030.1,023.7,011.6,0000.0,0006.96,0002.26,0001.25
2024-05-07 16:57:00,SystemResetWarning,0816.0,5.00,000.00,022.1,021.5,000.0,030.2,023.7,012.7,0000.0,0006.55,0002.34,0001.27
2024-05-07 16:58:00,SystemResetWarning,0815.9,5.00,000.00,022.1,021.5,000.0,030.2,023.8,011.6,0000.0,0006.83,0002.44,0001.28
2024-05-07 16:59:00,SystemResetWarning,0816.0,5.00,000.00,022.1,021.5,000.0,030.2,023.8,011.2,0000.0,0007.07,0002.44,0001.28
